Location: The Saddle
(36.8333°N, 80.3417°W)
Time: 07:18:56
(UTC-04:00)

Vanguard 2 Rocket - Pass Details

Date: 02 February 2023
Orbit: 555 x 3316 km, 32.9° (Epoch: 27 March)

Event Time Altitude Azimuth Distance (km) Brightness Sun altitude
Rises 15:01:38 0° 269° (W) 2,741 9.9 26.3°
Reaches altitude 10° 15:03:49 10° 258° (WSW) 1,917 9.5 26.0°
Maximum altitude 15:07:35 32° 194° (SSW) 1,194 9.0 25.5°
Drops below altitude 10° 15:12:41 10° 132° (SE) 2,628 9.4 24.8°
Sets 15:16:13 0° 124° (ESE) 3,976 10.1 24.4°
